Location: Newark
(33.9035°S, 18.4112°E)
Time: 15:24:59
(UTC+00:00)

STARLINK-1083 - Pass Details

Date: 20 January 2020
Orbit: 349 x 351 km, 53.0° (Epoch: 18 February)

Event Time Altitude Azimuth Distance (km) Brightness Sun altitude
Exits shadow 02:32:38 26° 3° (N) 735 4.0 -15.4°
Maximum altitude 02:33:42 37° 50° (NE) 573 3.8 -15.2°
Drops below altitude 10° 02:36:29 10° 119° (ESE) 1,336 7.0 -14.8°
Sets 02:38:36 0° 127° (SE) 2,186 8.7 -14.4°
